Location: ????????
(55.4717°N, 39.1821°E)
Time: 01:55:54
(UTC+00:00)

ADEOS II - Pass Details

Date: 14 April 2024
Orbit: 796 x 799 km, 98.7° (Epoch: 18 May)

Event Time Altitude Azimuth Distance (km) Brightness Sun altitude
Rises 00:41:37 0° 14° (NNE) 3,320 6.2 -13.1°
Reaches altitude 10° 00:44:00 10° 9° (N) 2,385 5.3 -12.8°
Maximum altitude 00:49:05 51° 295° (WNW) 1,002 2.4 -12.3°
Enters shadow 00:53:07 16° 225° (SW) 1,988 3.5 -11.8°
